UAL1328 KRDU-KJFK

Flight info

Callsign UAL1328
Flight time 1h 5m
Altitude 41000
Route HURIC4 FEBEL DCT GUILD DCT SAWED Q108 SIE CAMRN5
Aircraft B77L/H-SDE1E2E3FGHIJ2J3J4J5M1RWXY/LB1D1

Departure

Time 2026-05-04 20:22
Airport Raleigh-Durham International Airport (KRDU)

Arrival

Time 2026-05-04 21:27
Airport John F. Kennedy International Airport (KJFK)
Time Latitude Longitude Altitude Speed Heading
2026-05-04 20:01 35.87524 -78.79550 422 ft 0 kts 335°
2026-05-04 20:12 35.87515 -78.79544 410 ft 3 kts 312°
2026-05-04 20:12 35.87506 -78.79522 409 ft 3 kts 266°
2026-05-04 20:12 35.87508 -78.79505 409 ft 0 kts 244°
2026-05-04 20:15 35.87485 -78.79557 410 ft 19 kts 241°
2026-05-04 20:16 35.87453 -78.79637 415 ft 0 kts 254°
2026-05-04 20:16 35.87442 -78.79684 414 ft 19 kts 254°
2026-05-04 20:16 35.87486 -78.79776 416 ft 13 kts 326°
2026-05-04 20:16 35.87563 -78.79828 422 ft 11 kts 349°
2026-05-04 20:17 35.87631 -78.79777 425 ft 13 kts 45°
2026-05-04 20:17 35.87693 -78.79702 428 ft 14 kts 44°
2026-05-04 20:17 35.87818 -78.79546 421 ft 29 kts 46°
2026-05-04 20:17 35.87937 -78.79400 423 ft 23 kts 44°
2026-05-04 20:18 35.88054 -78.79259 424 ft 25 kts 44°
2026-05-04 20:18 35.88174 -78.79108 422 ft 25 kts 46°
2026-05-04 20:18 35.88299 -78.78952 421 ft 26 kts 45°
2026-05-04 20:18 35.88428 -78.78792 421 ft 26 kts 45°
2026-05-04 20:19 35.88557 -78.78635 424 ft 26 kts 45°
2026-05-04 20:19 35.88683 -78.78477 421 ft 25 kts 45°
2026-05-04 20:19 35.88806 -78.78326 419 ft 25 kts 45°
2026-05-04 20:19 35.88927 -78.78177 430 ft 25 kts 45°
2026-05-04 20:20 35.89048 -78.78026 418 ft 24 kts 45°
2026-05-04 20:20 35.89162 -78.77885 416 ft 23 kts 45°
2026-05-04 20:20 35.89254 -78.77773 418 ft 11 kts 44°
2026-05-04 20:20 35.89279 -78.77752 418 ft 0 kts 19°
2026-05-04 20:21 35.89336 -78.77770 419 ft 12 kts 324°
2026-05-04 20:21 35.89326 -78.77882 418 ft 0 kts 224°
2026-05-04 20:22 35.89138 -78.78110 416 ft 85 kts 225°
2026-05-04 20:22 35.88520 -78.78864 461 ft 157 kts 224°
2026-05-04 20:22 35.87736 -78.79847 1224 ft 160 kts 224°
2026-05-04 20:23 35.86983 -78.80805 2300 ft 157 kts 225°
2026-05-04 20:23 35.86212 -78.81784 3164 ft 168 kts 225°
2026-05-04 20:23 35.85310 -78.82900 3610 ft 199 kts 225°
2026-05-04 20:23 35.84242 -78.84230 4021 ft 232 kts 225°
2026-05-04 20:24 35.83061 -78.85677 4926 ft 241 kts 223°
2026-05-04 20:24 35.81606 -78.86733 5659 ft 258 kts 199°
2026-05-04 20:24 35.79753 -78.86815 6406 ft 280 kts 171°
2026-05-04 20:24 35.77957 -78.85771 7359 ft 295 kts 143°
2026-05-04 20:25 35.76617 -78.83793 8327 ft 306 kts 117°
2026-05-04 20:25 35.76035 -78.81261 9303 ft 310 kts 91°
2026-05-04 20:25 35.76069 -78.78630 10235 ft 313 kts 83°
2026-05-04 20:25 35.76255 -78.75865 10841 ft 336 kts 81°
2026-05-04 20:26 35.76500 -78.72856 11111 ft 370 kts 81°
2026-05-04 20:26 35.76784 -78.69604 11494 ft 397 kts 81°
2026-05-04 20:26 35.77094 -78.66171 12476 ft 408 kts 81°
2026-05-04 20:26 35.77417 -78.62658 13665 ft 414 kts 81°
2026-05-04 20:27 35.77747 -78.59099 14728 ft 420 kts 81°
2026-05-04 20:27 35.78085 -78.55522 15781 ft 426 kts 81°
2026-05-04 20:27 35.78441 -78.51866 16830 ft 432 kts 81°
2026-05-04 20:27 35.78810 -78.48206 17830 ft 438 kts 81°
2026-05-04 20:28 35.79236 -78.44474 18729 ft 437 kts 76°
2026-05-04 20:28 35.80181 -78.40895 19191 ft 439 kts 68°
2026-05-04 20:28 35.81170 -78.37303 19716 ft 453 kts 69°
2026-05-04 20:28 35.82261 -78.33613 20599 ft 457 kts 67°
2026-05-04 20:29 35.83398 -78.29980 21511 ft 460 kts 66°
2026-05-04 20:29 35.84575 -78.26280 22352 ft 467 kts 66°
2026-05-04 20:29 35.85779 -78.22490 23147 ft 474 kts 67°
2026-05-04 20:29 35.86965 -78.18723 23876 ft 480 kts 67°
2026-05-04 20:30 35.88182 -78.14822 24527 ft 486 kts 67°
2026-05-04 20:30 35.89398 -78.10900 25168 ft 492 kts 67°
2026-05-04 20:30 35.90614 -78.06964 25813 ft 498 kts 67°
2026-05-04 20:30 35.91859 -78.02928 26438 ft 504 kts 67°
2026-05-04 20:31 35.93115 -77.98854 27034 ft 510 kts 67°
2026-05-04 20:31 35.94373 -77.94775 27640 ft 516 kts 66°
2026-05-04 20:31 35.95793 -77.90661 28154 ft 520 kts 62°
2026-05-04 20:31 35.97486 -77.86747 28709 ft 523 kts 55°
2026-05-04 20:32 35.99515 -77.82979 29258 ft 526 kts 52°
2026-05-04 20:32 36.01631 -77.79230 29788 ft 530 kts 51°
2026-05-04 20:32 36.03726 -77.75526 30244 ft 535 kts 51°
2026-05-04 20:32 36.05856 -77.71727 30776 ft 535 kts 52°
2026-05-04 20:33 36.07970 -77.67918 31440 ft 533 kts 52°
2026-05-04 20:33 36.10052 -77.64136 32111 ft 531 kts 52°
2026-05-04 20:33 36.12100 -77.60397 32748 ft 530 kts 52°
2026-05-04 20:33 36.14174 -77.56607 33236 ft 531 kts 52°
2026-05-04 20:34 36.16245 -77.52818 33803 ft 531 kts 52°
2026-05-04 20:34 36.18319 -77.49022 34358 ft 529 kts 52°
2026-05-04 20:34 36.20367 -77.45273 34831 ft 529 kts 52°
2026-05-04 20:34 36.22438 -77.41477 35266 ft 529 kts 52°
2026-05-04 20:35 36.24476 -77.37739 35693 ft 530 kts 52°
2026-05-04 20:35 36.26540 -77.33948 36138 ft 529 kts 52°
2026-05-04 20:35 36.28599 -77.30162 36595 ft 529 kts 52°
2026-05-04 20:35 36.30754 -77.26478 37032 ft 526 kts 47°
2026-05-04 20:36 36.33146 -77.23030 37507 ft 522 kts 41°
2026-05-04 20:36 36.35723 -77.19955 37866 ft 519 kts 37°
2026-05-04 20:36 36.38431 -77.16957 38241 ft 519 kts 36°
2026-05-04 20:36 36.41152 -77.13977 38654 ft 519 kts 36°
2026-05-04 20:37 36.43834 -77.11034 38975 ft 519 kts 36°
2026-05-04 20:37 36.46551 -77.08034 39022 ft 524 kts 36°
2026-05-04 20:37 36.49279 -77.04999 39148 ft 522 kts 37°
2026-05-04 20:37 36.51938 -77.02016 39532 ft 516 kts 37°
2026-05-04 20:38 36.54589 -76.99031 39948 ft 512 kts 37°
2026-05-04 20:38 36.57200 -76.96086 40317 ft 509 kts 37°
2026-05-04 20:38 36.59820 -76.93129 40706 ft 505 kts 37°
2026-05-04 20:38 36.62434 -76.90178 41034 ft 504 kts 37°
2026-05-04 20:39 36.67687 -76.84256 41021 ft 516 kts 37°
2026-05-04 20:39 36.73048 -76.78199 41021 ft 525 kts 37°
2026-05-04 20:40 36.78474 -76.72045 41010 ft 527 kts 37°
2026-05-04 20:40 36.83865 -76.65915 41008 ft 527 kts 37°
2026-05-04 20:41 36.89274 -76.59755 40998 ft 526 kts 37°
2026-05-04 20:41 36.94697 -76.53568 41033 ft 524 kts 38°
2026-05-04 20:42 37.00059 -76.47441 40970 ft 523 kts 38°
2026-05-04 20:42 37.05408 -76.41316 40972 ft 521 kts 38°
2026-05-04 20:43 37.10777 -76.35156 40971 ft 520 kts 38°
2026-05-04 20:43 37.16092 -76.29046 41000 ft 520 kts 38°
2026-05-04 20:44 37.21413 -76.22917 40982 ft 520 kts 38°
2026-05-04 20:44 37.26719 -76.16792 40994 ft 519 kts 38°
2026-05-04 20:45 37.32045 -76.10630 40978 ft 519 kts 38°
2026-05-04 20:45 37.37334 -76.04502 41012 ft 519 kts 38°
2026-05-04 20:46 37.42662 -75.98313 40991 ft 520 kts 38°
2026-05-04 20:46 37.47952 -75.92156 40989 ft 519 kts 38°
2026-05-04 20:47 37.53340 -75.86119 40996 ft 516 kts 33°
2026-05-04 20:47 37.59311 -75.81197 41012 ft 509 kts 25°
2026-05-04 20:48 37.64393 -75.77483 41018 ft 509 kts 25°
2026-05-04 20:48 37.70528 -75.72935 40996 ft 510 kts 25°
2026-05-04 20:49 37.76612 -75.68344 41005 ft 510 kts 25°
2026-05-04 20:49 37.82692 -75.63743 41007 ft 510 kts 26°
2026-05-04 20:50 37.88694 -75.58830 40999 ft 512 kts 30°
2026-05-04 20:50 37.91595 -75.56285 40881 ft 514 kts 30°
2026-05-04 20:50 37.94536 -75.53688 40705 ft 511 kts 30°
2026-05-04 20:51 37.97435 -75.51141 40497 ft 509 kts 30°
2026-05-04 20:51 38.00363 -75.48588 40316 ft 507 kts 30°
2026-05-04 20:51 38.03243 -75.46086 40147 ft 504 kts 30°
2026-05-04 20:51 38.06144 -75.43573 39852 ft 503 kts 29°
2026-05-04 20:52 38.09082 -75.41132 39468 ft 505 kts 27°
2026-05-04 20:52 38.12057 -75.38736 39153 ft 504 kts 27°
2026-05-04 20:52 38.15032 -75.36345 39016 ft 505 kts 27°
2026-05-04 20:52 38.17978 -75.33949 38857 ft 499 kts 27°
2026-05-04 20:53 38.20856 -75.31606 38430 ft 492 kts 25°
2026-05-04 20:53 38.23856 -75.29604 37919 ft 480 kts 17°
2026-05-04 20:53 38.26948 -75.28097 37463 ft 468 kts 12°
2026-05-04 20:53 38.30029 -75.26996 37014 ft 457 kts
2026-05-04 20:54 38.33138 -75.26321 36557 ft 449 kts
2026-05-04 20:54 38.36223 -75.25731 36102 ft 444 kts
2026-05-04 20:54 38.39226 -75.25153 35661 ft 439 kts
2026-05-04 20:54 38.42250 -75.24550 35263 ft 434 kts
2026-05-04 20:55 38.45188 -75.23945 34911 ft 428 kts
2026-05-04 20:55 38.48111 -75.23336 34514 ft 423 kts
2026-05-04 20:55 38.51019 -75.22720 34098 ft 419 kts
2026-05-04 20:55 38.53893 -75.22106 33623 ft 415 kts
2026-05-04 20:56 38.56694 -75.21506 33129 ft 411 kts
2026-05-04 20:56 38.59501 -75.20906 32782 ft 405 kts
2026-05-04 20:56 38.62298 -75.20310 32925 ft 411 kts
2026-05-04 20:56 38.65174 -75.19703 32999 ft 424 kts
2026-05-04 20:57 38.68089 -75.18895 32962 ft 442 kts 13°
2026-05-04 20:57 38.71019 -75.17425 32986 ft 460 kts 21°
2026-05-04 20:57 38.73825 -75.15377 32964 ft 477 kts 30°
2026-05-04 20:57 38.76529 -75.12803 32987 ft 486 kts 33°
2026-05-04 20:58 38.81876 -75.07408 32963 ft 486 kts 34°
2026-05-04 20:58 38.87183 -75.02091 32991 ft 483 kts 33°
2026-05-04 20:59 38.92486 -74.96866 32977 ft 479 kts 33°
2026-05-04 20:59 38.97747 -74.91699 32980 ft 476 kts 33°
2026-05-04 21:00 39.03018 -74.86508 32987 ft 478 kts 33°
2026-05-04 21:00 39.08274 -74.81314 32982 ft 475 kts 33°
2026-05-04 21:01 39.13413 -74.76044 32943 ft 474 kts 36°
2026-05-04 21:01 39.15986 -74.73249 31774 ft 487 kts 36°
2026-05-04 21:01 39.18567 -74.70409 30744 ft 486 kts 36°
2026-05-04 21:02 39.21144 -74.67574 29772 ft 483 kts 36°
2026-05-04 21:02 39.23666 -74.64810 28970 ft 476 kts 36°
2026-05-04 21:02 39.26177 -74.62075 28229 ft 469 kts 36°
2026-05-04 21:02 39.28658 -74.59379 27498 ft 462 kts 35°
2026-05-04 21:03 39.31091 -74.56739 26806 ft 456 kts 35°
2026-05-04 21:03 39.33513 -74.54111 26101 ft 451 kts 35°
2026-05-04 21:03 39.35915 -74.51500 25400 ft 447 kts 35°
2026-05-04 21:03 39.38286 -74.48921 24702 ft 443 kts 35°
2026-05-04 21:04 39.40611 -74.46387 24056 ft 440 kts 35°
2026-05-04 21:04 39.42950 -74.43836 23391 ft 437 kts 35°
2026-05-04 21:04 39.45279 -74.41295 22622 ft 434 kts 35°
2026-05-04 21:04 39.47569 -74.38793 21948 ft 430 kts 35°
2026-05-04 21:05 39.49850 -74.36299 21293 ft 426 kts 35°
2026-05-04 21:05 39.52084 -74.33854 20681 ft 423 kts 36°
2026-05-04 21:05 39.54330 -74.31396 20040 ft 420 kts 36°
2026-05-04 21:05 39.56531 -74.28983 19424 ft 417 kts 36°
2026-05-04 21:06 39.58739 -74.26560 19141 ft 413 kts 36°
2026-05-04 21:06 39.60959 -74.24125 18994 ft 420 kts 36°
2026-05-04 21:06 39.63211 -74.21653 18963 ft 424 kts 36°
2026-05-04 21:06 39.65441 -74.19200 18957 ft 425 kts 36°
2026-05-04 21:07 39.67704 -74.16708 18940 ft 424 kts 36°
2026-05-04 21:07 39.69952 -74.14230 18958 ft 424 kts 36°
2026-05-04 21:07 39.72207 -74.11743 18954 ft 424 kts 36°
2026-05-04 21:07 39.74445 -74.09272 18954 ft 424 kts 36°
2026-05-04 21:08 39.76699 -74.06781 18950 ft 424 kts 36°
2026-05-04 21:08 39.78947 -74.04295 18972 ft 424 kts 36°
2026-05-04 21:08 39.81198 -74.01803 18962 ft 424 kts 36°
2026-05-04 21:08 39.83425 -73.99338 18961 ft 424 kts 36°
2026-05-04 21:09 39.85781 -73.97081 18956 ft 417 kts 27°
2026-05-04 21:09 39.88323 -73.95252 18957 ft 415 kts 22°
2026-05-04 21:09 39.90912 -73.93568 18947 ft 415 kts 22°
2026-05-04 21:09 39.93488 -73.91884 18604 ft 420 kts 22°
2026-05-04 21:10 39.96095 -73.90110 17969 ft 421 kts 24°
2026-05-04 21:10 39.98656 -73.88306 17311 ft 417 kts 24°
2026-05-04 21:10 40.01159 -73.86521 16801 ft 409 kts 24°
2026-05-04 21:10 40.03649 -73.84722 16230 ft 403 kts 26°
2026-05-04 21:11 40.05951 -73.82672 15541 ft 405 kts 35°
2026-05-04 21:11 40.08098 -73.80281 14848 ft 404 kts 37°
2026-05-04 21:11 40.10225 -73.77935 14200 ft 401 kts 36°
2026-05-04 21:11 40.12383 -73.75600 13549 ft 398 kts 36°
2026-05-04 21:12 40.14491 -73.73332 12908 ft 394 kts 35°
2026-05-04 21:12 40.16639 -73.71116 12297 ft 389 kts 33°
2026-05-04 21:12 40.18774 -73.68991 11937 ft 380 kts 33°
2026-05-04 21:12 40.20880 -73.66907 11680 ft 379 kts 33°
2026-05-04 21:13 40.22964 -73.64838 11436 ft 383 kts 34°
2026-05-04 21:13 40.25098 -73.62704 11212 ft 383 kts 34°
2026-05-04 21:13 40.27178 -73.60610 10957 ft 371 kts 34°
2026-05-04 21:13 40.29192 -73.58577 10705 ft 357 kts 34°
2026-05-04 21:14 40.31102 -73.56649 10486 ft 345 kts 34°
2026-05-04 21:14 40.33039 -73.54996 10245 ft 320 kts 18°
2026-05-04 21:14 40.35111 -73.54354 10069 ft 297 kts
2026-05-04 21:14 40.37130 -73.53908 9886 ft 290 kts
2026-05-04 21:15 40.39119 -73.53437 9693 ft 289 kts
2026-05-04 21:15 40.41079 -73.52964 9506 ft 290 kts
2026-05-04 21:15 40.43069 -73.52482 9313 ft 290 kts
2026-05-04 21:15 40.45062 -73.51997 9125 ft 290 kts
2026-05-04 21:16 40.47024 -73.51519 8932 ft 290 kts
2026-05-04 21:16 40.49015 -73.51034 8746 ft 289 kts
2026-05-04 21:16 40.51001 -73.50549 8557 ft 289 kts
2026-05-04 21:16 40.52956 -73.50071 8381 ft 289 kts
2026-05-04 21:17 40.54937 -73.49586 8187 ft 288 kts
2026-05-04 21:17 40.56923 -73.49099 8002 ft 288 kts
2026-05-04 21:17 40.58893 -73.48616 7797 ft 287 kts
2026-05-04 21:17 40.60819 -73.48142 7619 ft 280 kts
2026-05-04 21:18 40.62715 -73.47676 7431 ft 274 kts
2026-05-04 21:18 40.64563 -73.47222 7265 ft 272 kts
2026-05-04 21:18 40.66427 -73.46765 7099 ft 271 kts
2026-05-04 21:18 40.68283 -73.46297 6917 ft 270 kts
2026-05-04 21:19 40.70057 -73.45414 6703 ft 274 kts 21°
2026-05-04 21:19 40.71758 -73.44288 6486 ft 277 kts 22°
2026-05-04 21:19 40.73487 -73.43134 6280 ft 277 kts 21°
2026-05-04 21:19 40.75260 -73.42463 6012 ft 263 kts 354°
2026-05-04 21:20 40.76975 -73.43062 5728 ft 254 kts 324°
2026-05-04 21:20 40.78332 -73.44530 5413 ft 250 kts 307°
2026-05-04 21:20 40.79325 -73.46385 5084 ft 245 kts 298°
2026-05-04 21:20 40.80186 -73.48281 4758 ft 241 kts 297°
2026-05-04 21:21 40.81042 -73.50176 4383 ft 238 kts 297°
2026-05-04 21:21 40.81852 -73.52048 4054 ft 227 kts 289°
2026-05-04 21:21 40.82071 -73.53988 3836 ft 210 kts 265°
2026-05-04 21:21 40.81784 -73.55825 3652 ft 202 kts 252°
2026-05-04 21:22 40.81325 -73.57594 3562 ft 205 kts 250°
2026-05-04 21:22 40.80849 -73.59380 3378 ft 205 kts 250°
2026-05-04 21:22 40.80383 -73.61128 3189 ft 202 kts 250°
2026-05-04 21:22 40.79807 -73.62782 3073 ft 194 kts 232°
2026-05-04 21:23 40.78803 -73.63876 3020 ft 178 kts 220°
2026-05-04 21:23 40.77858 -73.64836 3009 ft 178 kts 220°
2026-05-04 21:23 40.76802 -73.65813 2782 ft 186 kts 216°
2026-05-04 21:23 40.75737 -73.66679 2534 ft 177 kts 214°
2026-05-04 21:24 40.74717 -73.67482 2332 ft 165 kts 213°
2026-05-04 21:24 40.73782 -73.68221 2139 ft 149 kts 214°
2026-05-04 21:24 40.72924 -73.68892 1903 ft 135 kts 213°
2026-05-04 21:24 40.72147 -73.69503 1769 ft 127 kts 214°
2026-05-04 21:25 40.71382 -73.70108 1615 ft 133 kts 213°
2026-05-04 21:25 40.70585 -73.70734 1414 ft 133 kts 212°
2026-05-04 21:25 40.69787 -73.71358 1230 ft 132 kts 211°
2026-05-04 21:25 40.68993 -73.71977 1053 ft 133 kts 210°
2026-05-04 21:26 40.68214 -73.72592 876 ft 127 kts 208°
2026-05-04 21:26 40.67449 -73.73193 723 ft 130 kts 207°
2026-05-04 21:26 40.66694 -73.73788 536 ft 124 kts 207°
2026-05-04 21:26 40.65972 -73.74355 376 ft 123 kts 204°
2026-05-04 21:27 40.65258 -73.74936 233 ft 123 kts 211°
2026-05-04 21:27 40.64528 -73.75473 131 ft 119 kts 208°
2026-05-04 21:27 40.63889 -73.75966 31 ft 102 kts 205°
2026-05-04 21:27 40.63484 -73.76280 29 ft 41 kts 213°
2026-05-04 21:28 40.63267 -73.76540 26 ft 41 kts 244°
2026-05-04 21:28 40.63273 -73.76793 27 ft 17 kts 297°
2026-05-04 21:28 40.63294 -73.76848 30 ft 0 kts 296°